www.pogodaiklimat.ru

Погода и климат >> Архив погоды >> Россия >> Оренбургская область >> Соль-Илецк


ПОГОДА в Соль-Илецк

  • Прогноз погоды в Соль-Илецк
  • Монитор погоды в Соль-Илецк

АРХИВ ПОГОДЫ в Соль-Илецк

Время (UTC), дата Ветер
(напр.,м/с)
 
Видим.   Явления Облачность Т
(С)
Тd
(С)
f
(%)
Тe
(С)
Тes
(С)
Комфортность P
(гПа)
Po
(гПа)
Тmin
(С)
Tmax
(С)
R
(мм)
R24
(мм)
S
(см)
09 9.07 ЮЗ 3
{10}
20 км 3/3 1000 м
[Cu hum]
+34.7 +4.6 15 +32 +42 жарко 1005.5 992.2
12 9.07 З 4 20 км 3/3 1000 м
[Cu hum]
+35.3 +4.2 14 +32 +36 жарко 1004.6 991.3
15 9.07 Ю 1 20 км 8/4 600 м
[Cb cap Ac cuf]
+34.1 +6.0 17 +32 +32 жарко 1004.1 990.7 +35.7
18 9.07 Ю 2 10 км 9/9 600 м
[Cb cap]
+28.5 +10.8 33 +29 +29 жарко 1004.7 991.1
21 9.07 ЮВ 1 10 км 10/0
[Ac As]
+24.4 +6.6 32 +24 +24 комфорт 1004.2 990.4
00 10.07 Ю 1 20 км 10/0
[Ac As]
+24.8 +6.4 31 +25 +25 комфорт 1003.9 990.2
03 10.07 З 3
{10}
20 км в посл. час ливневой дождь 10/8 600 м
[Cb cap As op]
+22.8 +13.0 54 +26 +26 жарко 1004.0 990.2 +22.1 0.1
06 10.07 ЮВ 2 20 км {ливн. осадки} 8/8 600 м
[Cb cap]
+27.4 +14.9 46 +30 +33 жарко 1003.5 989.9
09 10.07 З 4 20 км 8/8 600 м
[Cu Sc]
+31.6 +11.2 29 +32 +34 жарко 1002.4 989.0
12 10.07 В 4
{17}
20 км гроза без осадков {ливн. осадки} 9/9 600 м
[Cb cap]
+21.9 +17.8 78 +27 +27 душно 1002.6 988.8
15 10.07 З 1
{14}
10 км гроза, ливневой дождь 9/9 600 м
[Cb cap]
+20.2 +18.3 89 +25 +25 комфорт 1002.7 988.8 +32.8 11
18 10.07 СЗ 1 10 км {гроза, ливн. осадки} 3/0
[Ac cast]
+20.9 +19.1 89 +26 +26 душно 1004.4 990.5
21 10.07 Ю 1 10 км ясно +17.4 +16.2 93 +18 +18 1005.5 991.4
00 11.07 штиль 0 20 км ясно +15.1 +13.4 90 +15 +15 1006.6 992.4
03 11.07 ЮВ 1 20 км ясно +20.2 +14.7 71 +24 +28 комфорт 1007.3 993.3 +14.4 2
06 11.07 В 1 20 км 3/0
[Ci fib]
+26.0 +10.5 38 +27 +41 жарко 1007.8 994.0
09 11.07 ЮЗ 2 20 км 3/3 1000 м
[Cu hum]
+28.2 +10.0 32 +28 +40 жарко 1007.9 994.2
12 11.07 З 1 20 км 4/3 1000 м
[Cu med, cong Ci fib]
+30.7 +7.5 23 +29 +36 жарко 1007.3 993.7
15 11.07 СВ 1 20 км 3/1 600 м
[Cu med, cong Ci fib]
+28.7 +9.7 31 +29 +30 жарко 1007.2 993.6 +30.9
18 11.07 СВ 3 10 км 3/3 1000 м
[Sc]
+22.8 +11.1 48 +25 +25 комфорт 1008.3 994.4
21 11.07 В 2 10 км ясно +19.6 +11.1 58 +21 +21 комфорт 1007.7 993.6
00 12.07 В 2 20 км 3/0
[Ci fib]
+17.4 +10.8 65 +18 +18 1007.5 993.3
03 12.07 В 4 20 км 10/0
[Cs]
+22.8 +10.6 46 +25 +27 комфорт 1006.8 992.9 +17.3
06 12.07 ЮВ 3 20 км 4/0
[Cs]
+31.8 +13.3 32 +33 +43 жарко 1005.4 992.0
09 12.07 ЮВ 4 20 км 6/4 1000 м
[Cu hum Ci fib]
+36.0 +11.1 22 +35 +41 очень
жарко
1003.5 990.3
12 12.07 ЮВ 3 20 км 6/6 1000 м
[Cu hum]
+37.1 +11.2 21 +36 +39 очень
жарко
1002.0 988.8
15 12.07 ЮВ 2 20 км 3/3 1000 м
[Cu hum]
+35.6 +9.5 20 +34 +35 очень
жарко
1000.5 987.3 +37.2
18 12.07 В 2 10 км ясно +27.1 +11.8 39 +28 +28 жарко 1000.3 986.7
21 12.07 В 2 10 км ясно +24.1 +10.7 43 +25 +25 комфорт 999.4 985.6
00 13.07 ЮВ 1 20 км 8/0
[Cs]
+21.0 +12.4 58 +25 +25 комфорт 1001.0 987.1
03 13.07 В 3 20 км 9/9 600 м
[Cb cap]
+22.8 +13.7 56 +26 +26 жарко 1001.2 987.4 +18.6
06 13.07 ЮВ 4 20 км 8/8 600 м
[Cb cap]
+30.8 +14.8 38 +33 +35 душно 1000.2 986.8
09 13.07 З 4
{13}
20 км 8/6 600 м
[Cb cap Ac cuf]
+34.5 +14.5 30 +36 +39 душно 999.7 986.5
12 13.07 В 1 20 км 8/4 600 м
[Cb cap Ac cuf]
+35.2 +16.0 32 +37 +41 очень
душно
999.9 986.6
15 13.07 Ю 1
{12}
20 км {гроза} 10/8 600 м
[Cb cap Cs]
+29.9 +18.0 49 +34 +35 очень
душно
1001.7 988.2 +38.1
18 13.07 СЗ 4 10 км {гроза} 9/9 600 м
[Cb cap]
+27.6 +17.5 54 +32 +32 очень
душно
1002.2 988.6
21 13.07 С 4
{10}
10 км 6/6 600 м
[Cb cap]
+21.7 +16.2 71 +25 +25 комфорт 1003.0 989.1
00 14.07 Ю 1 20 км 3/3 600 м
[Cb cap]
+17.9 +15.6 86 +19 +19 1005.6 991.5
03 14.07 СЗ 2 20 км 8/3 600 м
[Cb cap Ci fib]
+19.8 +16.0 79 +23 +25 комфорт 1005.7 991.7 +17.7
06 14.07 З 3 20 км 8/8 600 м
[Cu Sc]
+24.0 +16.2 62 +27 +30 жарко 1006.4 992.7
09 14.07 СЗ 2 20 км 10/1 600 м
[Cu med, cong Cs]
+28.8 +14.9 43 +31 +43 жарко 1005.3 991.7
12 14.07 С 2 20 км 10/8 600 м
[Cb cap Cc]
+29.0 +14.4 41 +31 +33 жарко 1004.6 991.1
15 14.07 С 3 20 км 10/9 600 м
[Cb cap Cs]
+25.9 +16.3 55 +29 +29 душно 1004.0 990.3 +29.4
18 14.07 С 4 10 км гроза, ливневой дождь 10/10 450 м
[Cb cap]
+21.4 +18.3 83 +26 +26 душно 1002.0 988.2
21 14.07 СЗ 3
{11}
10 км в посл. час гроза {ливн. осадки} 10/6 600 м
[Cb cap As op]
+19.9 +18.3 90 +23 +23 комфорт 1000.3 986.4
00 15.07 С 7-13
{15}
20 км {гроза, ливн. осадки} 10/4 600 м
[Cb cap As op]
+17.8 +15.7 88 +17 +17 996.3 982.4
03 15.07 З 4
{15}
20 км 10/9 300 м
[Frnb As trans]
+18.2 +16.3 89 +18 +18 998.7 984.7 +15.2 12
06 15.07 З 4-10
{12}
20 км 10/8 1000 м
[Cb cap As trans]
+16.7 +14.8 89 +16 +17 1000.8 987.9
09 15.07 З 6-11
{14}
20 км 8/8 600 м
[Cb cap]
+22.2 +13.4 57 +25 +26 комфорт 1004.4 990.5
12 15.07 СЗ 5-11
{13}
20 км 6/6 600 м
[Cb cap]
+24.4 +11.9 46 +26 +28 жарко 1006.1 992.3
15 15.07 СЗ 3
{12}
20 км ясно +23.6 +12.6 50 +26 +26 жарко 1007.2 993.4 +24.7
18 15.07 СВ 1 10 км ясно +17.7 +13.0 74 +19 +19 1009.4 995.3
21 15.07 штиль 0 10 км ясно +14.3 +12.3 88 +14 +14 1010.3 996.0
00 16.07 штиль 0 20 км ясно +11.6 +10.4 92 +11 +11 1011.8 997.3
03 16.07 штиль 0 20 км ясно +17.7 +14.1 79 +18 +22 1012.7 998.5 +10.9

 

Местоположение метеостанции Соль-Илецк (Оренбургская область, Россия): широта 51.15 долгота 55.02 высота над уровнем моря 121 м.

В архиве по умолчанию представлена погода в Соль-Илецк за последнюю неделю. Архивные данные за месяц целиком и за предыдущие месяцы, начиная с января 2011 года, Вы можете получить, выбрав интересующий диапазон дат из раскрывающегося списка и нажав кнопку "Ввод!".


*Определитесь, кто Вы:
робот инопланетянин человек

Внимание! Время в таблицах - всемирное. Для получения местного времени необходимо прибавить поправку, которая равна 5 ч.

Смотрите также архив погоды в соседних городах и на ближайших метеорологических станциях:

Погода в Акбулаке (Оренбургская область, Россия) (45 км)
Погода в Новокуйбышевске (Самарская область, Россия) (45 км)
Погода в Оренбурге (Оренбургская область, Россия) (59 км)
Погода в Чингирлау (Западно-Казахстанская область, Казахстан) (65 км)
Погода в Татарской Каргале (Оренбургская область, Россия) (84 км)
Погода в Беляевке (Оренбургская область, Россия) (102 км)
Погода в Мартуке (Актюбинская область, Казахстан) (115 км)
Погода в Илеке (Оренбургская область, Россия) (122 км)
Погода в Новоалексеевке (Костанайская область, Казахстан) (123 км)
Погода в Аксае (Западно-Казахстанская область, Казахстан) (141 км)

Пояснения к столбцам:

Ветер - указаны скорость ветра в м/с - средняя за 10 мин, порывы в срок и между сроками (в фигурных скобках) и направление, откуда дует ветер: С - северный, СВ - северо-восточный, В - восточный, ЮВ - юго-восточный, Ю - южный, ЮЗ - юго-западный, З - западный, СЗ - северо-западный.
Видимость - горизонтальная дальность видимости в метрах или километрах. При видимости от 1 до 10 км при отсутствии осадков обычно наблюдается дымка, при ухудшении видимости до 1 км и менее - туман. В сухую погоду видимость может ухудшаться дымом, пылью или мглою.
Явления - указаны атмосферные явления, наблюдавшиеся в срок или в последний час перед сроком; фигурными скобками обозначены явления, наблюдавшиеся между сроками (за 1-3 часа до срока); квадратными скобками обозначены град или гололедные отложения с указанием их диаметра в мм.
Облачность - указаны через наклонную черту общая и нижняя облачность в баллах и высота нижней границы облаков в метрах; квадратными скобками обозначены формы облаков: Ci - перистые, Cs - перисто-слоистые, Cc - перисто-кучевые, Ac - высококучевые, As - высокослоистые, Sc - слоисто-кучевые, Ns - слоисто-дождевые, Cu - кучевые, Cb - кучево-дождевые. Подробнее классификацию облаков см. в Атласе облаков (PDF).
T - Температура воздуха - температура, измеренная на высоте 2 м над землей.
Td - Температура точки росы - температура, при понижении до которой содержащийся в воздухе водяной пар достигнет насыщения.
f - Относительная влажность воздуха - влажноcть воздуха, измеренная на высоте 2 м над землей.
Te - Эффективная температура - температура, которую ощущает одетый по сезону человек в тени. Характеристика душности погоды. При расчете учитывается влияние влажности воздуха и скорости ветра на теплоощущения человека.
Tes - Эффективная температура на солнце - температура, которую ощущает человек, с поправкой на солнечный нагрев. Характеристика знойности погоды. Зависит от высоты солнца над горизонтом, облачности и скорости ветра. Ночью, в пасмурную погоду, а также при ветре 12 м/с и более поправка равна нулю.
P - Атмосферное давление - приведенное к уровню моря атмосферное давление.
Po - Атмосферное давление - измеренное на уровне метеостанции атмосферное давление.
Tmin - Минимальная температура - минимум температуры воздуха на высоте 2 м над землей.
Tmax - Максимальная температура - максимум температуры воздуха на высоте 2 м над землей.
R - Количество осадков - Количество выпавших осадков за период времени, мм. При наведении курсора мыши на число - период времени, за который выпало указанное количество осадков.
R24 - Количество осадков - Количество выпавших осадков за 24 часа, мм.
S - Снежный покров - Высота снежного покрова, см. При наведении курсора мыши на число - состояние снежного покрова и степень покрытия местности в баллах.